Location: Cheching
(60.0667°N, 164.2167°W)
Time: 15:18:13
(UTC+00:00)

O/OREOS (USA 219) - Pass Details

Date: 22 January 2021
Orbit: 621 x 646 km, 72.0° (Epoch: 22 May)

Event Time Altitude Azimuth Distance (km) Brightness Sun altitude
Rises 16:19:42 0° 145° (SE) 2,955 ? -22.9°
Reaches altitude 10° 16:24:05 10° 105° (ESE) 2,051 ? -22.3°
Maximum altitude 16:24:52 10° 95° (E) 2,025 ? -22.2°
Drops below altitude 10° 16:25:39 10° 86° (E) 2,053 ? -22.2°
Sets 16:30:02 0° 46° (NE) 2,967 ? -21.6°
